| time (UTC) | temp F | wind direction | speed MPH | gust MPH | rain 1hr in | rain 24hr in | rain mn in | humidity % | barometer mb |
| 20260504150805 | 39 | 280 | 3.0 | 6.0 | 0.00 | 0.00 | 0.00 | 83 | 1018.3 |
| 20260504150306 | 38 | 282 | 3.0 | 7.0 | 0.00 | 0.00 | 0.00 | 84 | 1018.4 |
| 20260504140805 | 30 | 288 | 2.0 | 3.0 | 0.00 | 0.00 | 0.00 | 96 | 1018.6 |
| 20260504140306 | 30 | 285 | 2.0 | 5.0 | 0.00 | 0.00 | 0.00 | 95 | 1018.5 |
| 20260504130806 | 31 | 274 | 2.0 | 5.0 | 0.00 | 0.00 | 0.00 | 92 | 1018.4 |
| 20260504130306 | 32 | 288 | 2.0 | 6.0 | 0.00 | 0.00 | 0.00 | 91 | 1018.4 |
| 20260504120307 | 35 | 81 | 2.0 | 6.0 | 0.00 | 0.00 | 0.00 | 87 | 1018.6 |
| 20260504110306 | 38 | 284 | 4.0 | 6.0 | 0.00 | 0.00 | 0.00 | 85 | 1018.4 |
| 20260504100306 | 38 | 284 | 2.0 | 6.0 | 0.00 | 0.00 | 0.00 | 84 | 1018.5 |
| 20260504080805 | 33 | 291 | 3.0 | 5.0 | 0.00 | 0.00 | 0.00 | 92 | 1018.6 |
| 20260504070308 | 36 | 218 | 1.0 | 5.0 | 0.00 | 0.00 | 0.00 | 87 | 1018.5 |
| 20260504050305 | 46 | 267 | 3.0 | 6.0 | 0.00 | 0.00 | 0.00 | 73 | 1017.9 |
| 20260504040805 | 50 | 279 | 6.0 | 6.0 | 0.00 | 0.00 | 0.00 | 64 | 1017.6 |
| 20260504040306 | 50 | 278 | 6.0 | 6.0 | 0.00 | 0.00 | 0.00 | 65 | 1017.6 |
| 20260504030805 | 52 | 279 | 3.0 | 5.0 | 0.00 | 0.00 | 0.00 | 61 | 1017.5 |
| 20260504030305 | 53 | 268 | 2.0 | 5.0 | 0.00 | 0.00 | 0.00 | 60 | 1017.5 |
| 20260504020805 | 52 | 154 | 1.0 | 3.0 | 0.00 | 0.00 | 0.00 | 61 | 1017.4 |
| 20260504020305 | 52 | 112 | 1.0 | 3.0 | 0.00 | 0.00 | 0.00 | 60 | 1017.4 |
| 20260504010306 | 53 | 343 | 0.0 | 3.0 | 0.00 | 0.00 | 0.00 | 60 | 1017.5 |
| 20260504000308 | 53 | 271 | 2.0 | 3.0 | 0.00 | 0.00 | 0.00 | 60 | 1017.7 |
| 20260503230308 | 52 | 318 | 1.0 | 5.0 | 0.00 | 0.00 | 0.00 | 62 | 1018.0 |
| 20260503220806 | 51 | 21 | 2.0 | 5.0 | 0.00 | 0.00 | 0.00 | 61 | 1018.1 |
| 20260503220305 | 52 | 3 | 2.0 | 7.0 | 0.00 | 0.00 | 0.00 | 61 | 1018.1 |
| 20260503210805 | 50 | 318 | 2.0 | 5.0 | 0.00 | 0.00 | 0.00 | 62 | 1018.5 |
| 20260503210305 | 50 | 23 | 3.0 | 9.0 | 0.00 | 0.00 | 0.00 | 62 | 1018.5 |
| 20260503200305 | 49 | 345 | 3.0 | 7.0 | 0.00 | 0.00 | 0.00 | 65 | 1018.8 |
| 20260503190806 | 47 | 259 | 5.0 | 6.0 | 0.00 | 0.00 | 0.00 | 65 | 1019.0 |
| 20260503190308 | 47 | 268 | 3.0 | 6.0 | 0.00 | 0.00 | 0.00 | 63 | 1019.1 |
| 20260503180805 | 45 | 275 | 2.0 | 5.0 | 0.00 | 0.00 | 0.00 | 67 | 1019.2 |
| 20260503180306 | 44 | 308 | 2.0 | 7.0 | 0.00 | 0.00 | 0.00 | 67 | 1019.3 |
| 20260503170804 | 43 | 281 | 3.0 | 7.0 | 0.00 | 0.00 | 0.00 | 73 | 1019.3 |
| 20260503170305 | 43 | 285 | 4.0 | 9.0 | 0.00 | 0.00 | 0.00 | 73 | 1019.3 |